カタログに戻る

STARLINK-35228

運用中通信VLEO
NORAD 65517·PAYLOAD·🇺🇸 United States

打ち上げ Sep 5, 2025 から Cape Canaveral Space Force Station

Loading…

次のパス (今後24時間)

TLE

最新Source: CelesTrak SupGP

元期: Sep 14, 2026, 22:33 UTC

1 65517C 25198AB  26257.94006944 -.00020671  00000+0 -61081-3 0  2570
2 65517  53.1582 107.5190 0001324  82.3209  59.2966 15.34396172    16

AllMySatでSTARLINK-35228をリアルタイム追跡

Download on the App Store